FW9909 Weather Reports


time (UTC)temp
F
wind
direction
speed
knots
gust
knots
rain 1hr
in
rain 24hr
in
rain mn
in
humidity
%
barometer
mb
20260906172539 100 4 2.6 5.2 0.00 0.00 0.00 36 1015.4
20260906171517 99 348 1.7 4.3 0.00 0.00 0.00 38 1015.5
20260906170535 99 33 1.7 5.2 0.00 0.00 0.00 39 1015.6
20260906165533 99 11 2.6 5.2 0.00 0.00 0.00 40 1015.7
20260906164551 98 40 0.9 3.5 0.00 0.00 0.00 41 1015.8
20260906163530 100 27 2.6 4.3 0.00 0.00 0.00 40 1015.9
20260906162527 99 336 0.9 2.6 0.00 0.00 0.00 41 1016.0
20260906161526 97 294 1.7 3.5 0.00 0.00 0.00 43 1016.0
20260906160524 95 25 2.6 4.3 0.00 0.00 0.00 44 1015.9
20260906155522 95 20 2.6 4.3 0.00 0.00 0.00 44 1015.9
20260906154520 96 26 2.6 6.1 0.00 0.00 0.00 43 1016.0
20260906153518 97 305 1.7 3.5 0.00 0.00 0.00 43 1015.8
20260906152516 97 332 1.7 4.3 0.00 0.00 0.00 43 1015.8
20260906151535 96 8 0.0 1.7 0.00 0.00 0.00 45 1015.8
20260906150533 94 310 0.9 2.6 0.00 0.00 0.00 46 1015.8
20260906145531 95 301 0.9 2.6 0.00 0.00 0.00 46 1015.7
20260906144529 93 323 0.9 2.6 0.00 0.00 0.00 49 1015.7
20260906143527 91 327 1.7 1.7 0.00 0.00 0.00 52 1015.8
20260906142545 89 338 1.7 2.6 0.00 0.00 0.00 53 1015.9
20260906141543 89 336 0.9 1.7 0.00 0.00 0.00 54 1015.8
20260906140521 88 327 0.9 1.7 0.00 0.00 0.00 56 1015.8
20260906135519 86 56 0.9 1.7 0.00 0.00 0.00 60 1015.8
20260906134518 84 53 0.9 1.7 0.00 0.00 0.00 62 1015.7
20260906133516 82 38 1.7 3.5 0.00 0.00 0.00 66 1015.7
20260906132534 81 326 1.7 5.2 0.00 0.00 0.00 71 1015.6
20260906131532 79 100 1.7 3.5 0.00 0.00 0.00 72 1015.6
20260906130530 78 31 2.6 4.3 0.00 0.00 0.00 74 1015.4
20260906125528 76 62 1.7 2.6 0.00 0.00 0.00 79 1015.3
20260906124526 74 66 1.7 3.5 0.00 0.00 0.00 82 1015.3
20260906123525 73 80 1.7 3.5 0.00 0.00 0.00 85 1015.2
20260906122522 73 73 0.9 2.6 0.00 0.00 0.00 86 1014.9
20260906121541 73 122 0.9 3.5 0.00 0.00 0.00 85 1014.9
20260906120519 72 198 1.7 3.5 0.00 0.00 0.00 86 1014.8
20260906115517 73 30 0.9 1.7 0.00 0.00 0.00 84 1014.6
20260906114515 72 140 1.7 2.6 0.00 0.00 0.00 85 1014.5
20260906113533 72 66 0.9 2.6 0.00 0.00 0.00 85 1014.5
20260906112551 73 22 2.6 6.1 0.00 0.00 0.00 84 1014.5
20260906111529 73 45 1.7 3.5 0.00 0.00 0.00 84 1014.4
20260906110527 73 81 1.7 3.5 0.00 0.00 0.00 83 1014.5
20260906105526 73 62 0.9 2.6 0.00 0.00 0.00 83 1014.4
20260906104524 73 20 3.5 7.0 0.00 0.00 0.00 82 1014.2
20260906103522 74 57 1.7 3.5 0.00 0.00 0.00 82 1014.4
20260906102520 74 56 2.6 3.5 0.00 0.00 0.00 83 1014.3
20260906101519 74 78 1.7 3.5 0.00 0.00 0.00 81 1014.3
20260906100536 74 116 2.6 3.5 0.00 0.00 0.00 81 1014.2
20260906095534 74 85 1.7 3.5 0.00 0.00 0.00 80 1014.3
20260906094533 74 49 2.6 3.5 0.00 0.00 0.00 80 1014.2
20260906093531 74 34 2.6 4.3 0.00 0.00 0.00 80 1014.2
20260906092609 74 37 0.9 2.6 0.00 0.00 0.00 80 1014.1
20260906091527 74 42 0.9 1.7 0.00 0.00 0.00 79 1014.1
20260906090525 74 34 0.9 1.7 0.00 0.00 0.00 78 1014.1
20260906085523 75 42 0.9 1.7 0.00 0.00 0.00 78 1014.0
20260906084542 75 60 0.9 1.7 0.00 0.00 0.00 77 1013.9
20260906083520 75 45 0.9 1.7 0.00 0.00 0.00 76 1014.0
20260906082538 75 47 0.9 1.7 0.00 0.00 0.00 76 1014.0
20260906081536 76 43 0.9 1.7 0.00 0.00 0.00 75 1013.9
20260906080534 76 37 0.0 0.9 0.00 0.00 0.00 74 1014.0
20260906075532 76 52 1.7 1.7 0.00 0.00 0.00 73 1014.0
20260906074530 77 39 0.9 1.7 0.00 0.00 0.00 72 1013.8
20260906073528 77 39 1.7 2.6 0.00 0.00 0.00 72 1013.9
20260906072526 77 37 0.0 0.9 0.00 0.00 0.00 72 1014.1
20260906071524 77 46 0.9 1.7 0.00 0.00 0.00 71 1014.1
20260906070523 78 36 0.0 0.9 0.00 0.00 0.00 69 1014.1
20260906065521 78 36 0.9 1.7 0.00 0.00 0.00 69 1014.1
20260906064519 79 40 0.0 1.7 0.00 0.00 0.00 68 1014.2
20260906063537 80 23 0.0 0.9 0.00 0.00 0.00 66 1014.2
20260906062515 80 42 0.9 1.7 0.00 0.00 0.00 64 1014.2
20260906061533 80 37 1.7 2.6 0.00 0.00 0.00 64 1014.2
20260906060532 81 35 0.9 2.6 0.00 0.00 0.00 63 1014.1
20260906055529 81 28 1.7 2.6 0.00 0.00 0.00 63 1014.2
20260906054528 80 39 0.9 2.6 0.00 0.00 0.00 63 1014.2
20260906053546 80 28 0.9 2.6 0.00 0.00 0.00 64 1014.2
20260906052544 81 35 0.9 1.7 0.00 0.00 0.00 62 1014.0
20260906051522 82 38 0.9 1.7 0.00 0.00 0.00 61 1014.0
20260906050600 82 39 0.9 1.7 0.00 0.00 0.00 61 1013.9
20260906045518 82 40 1.7 2.6 0.00 0.00 0.00 60 1013.9
20260906044516 82 39 1.7 2.6 0.00 0.00 0.00 60 1013.9
20260906043535 82 41 0.9 2.6 0.00 0.00 0.00 59 1014.0
20260906042533 83 45 1.7 2.6 0.00 0.00 0.00 59 1014.1
20260906042025 82 34 1.7 2.6 0.00 0.00 0.00 60 1014.1
20260906041104 82 39 0.9 1.7 0.00 0.00 0.00 60 1014.1
20260906040022 83 38 1.7 2.6 0.00 0.00 0.00 60 1013.9
20260906035020 83 40 1.7 2.6 0.00 0.00 0.00 60 1014.0
20260906034018 83 45 1.7 2.6 0.00 0.00 0.00 60 1014.0
20260906033016 83 42 1.7 2.6 0.00 0.00 0.00 60 1013.9
20260906032034 83 59 0.9 1.7 0.00 0.00 0.00 59 1013.8
20260906031032 84 37 1.7 2.6 0.00 0.00 0.00 59 1013.9
20260906030031 84 45 1.7 2.6 0.00 0.00 0.00 59 1013.8
20260906025029 85 35 0.0 1.7 0.00 0.00 0.00 58 1013.7
20260906024027 86 60 0.9 2.6 0.00 0.00 0.00 56 1013.6
20260906023025 86 55 1.7 3.5 0.00 0.00 0.00 55 1013.4
20260906022023 86 45 1.7 3.5 0.00 0.00 0.00 54 1013.3
20260906021021 87 42 1.7 3.5 0.00 0.00 0.00 53 1013.2
20260906020019 87 54 2.6 5.2 0.00 0.00 0.00 52 1013.0
20260906015037 88 38 1.7 3.5 0.00 0.00 0.00 51 1012.9
20260906014035 89 27 1.7 4.3 0.00 0.00 0.00 50 1012.8
20260906013034 90 42 2.6 5.2 0.00 0.00 0.00 48 1012.7
20260906012052 91 35 1.7 3.5 0.00 0.00 0.00 47 1012.7
20260906011030 91 37 2.6 6.1 0.00 0.00 0.00 45 1012.7
20260906010028 92 26 0.9 1.7 0.00 0.00 0.00 45 1012.5
20260906005026 92 16 0.9 1.7 0.00 0.00 0.00 44 1012.5
20260906004025 93 21 1.7 2.6 0.00 0.00 0.00 43 1012.5
20260906003022 94 29 1.7 3.5 0.00 0.00 0.00 42 1012.5
20260906002021 95 33 2.6 3.5 0.00 0.00 0.00 40 1012.4
20260906001019 96 33 2.6 5.2 0.00 0.00 0.00 37 1012.5
20260906000017 97 4 0.0 0.9 0.00 0.00 0.00 34 1012.5
20260905235035 98 7 0.0 1.7 0.00 0.00 0.00 34 1012.4
20260905234033 98 10 0.0 1.7 0.00 0.00 0.00 33 1012.3
20260905233031 99 18 0.9 1.7 0.00 0.00 0.00 32 1012.4
20260905232029 100 29 0.9 1.7 0.00 0.00 0.00 31 1012.4
20260905231027 101 325 0.9 3.5 0.00 0.00 0.00 30 1012.4
20260905230106 102 338 1.7 4.3 0.00 0.00 0.00 29 1012.3
20260905225024 103 356 0.9 3.5 0.00 0.00 0.00 29 1012.3
20260905224022 102 14 2.6 4.3 0.00 0.00 0.00 29 1012.2
20260905223020 104 1 0.9 1.7 0.00 0.00 0.00 28 1012.2
20260905222020 104 305 2.6 4.3 0.00 0.00 0.00 29 1012.3
20260905221016 104 286 1.7 3.5 0.00 0.00 0.00 29 1012.3
20260905220034 105 27 1.7 5.2 0.00 0.00 0.00 29 1012.5
20260905215053 106 337 1.7 3.5 0.00 0.00 0.00 29 1012.5
20260905214031 105 284 1.7 4.3 0.00 0.00 0.00 30 1012.5
20260905213029 102 328 0.9 3.5 0.00 0.00 0.00 31 1012.6
20260905212027 102 349 1.7 3.5 0.00 0.00 0.00 32 1012.8
20260905211025 103 35 1.7 4.3 0.00 0.00 0.00 32 1012.9
20260905210023 104 58 1.7 4.3 0.00 0.00 0.00 31 1013.2
20260905205021 104 32 1.7 4.3 0.00 0.00 0.00 32 1013.3
20260905204019 104 353 1.7 4.3 0.00 0.00 0.00 31 1013.5
20260905203017 104 281 1.7 4.3 0.00 0.00 0.00 32 1013.6
20260905202016 104 301 2.6 5.2 0.00 0.00 0.00 32 1013.7
20260905201034 103 359 0.9 2.6 0.00 0.00 0.00 33 1013.9
20260905200032 101 41 2.6 5.2 0.00 0.00 0.00 34 1014.0
20260905195030 104 3 2.6 5.2 0.00 0.00 0.00 33 1014.1
20260905194028 103 272 1.7 5.2 0.00 0.00 0.00 33 1014.2
20260905193027 103 167 1.7 6.1 0.00 0.00 0.00 33 1014.3
20260905192024 101 287 1.7 3.5 0.00 0.00 0.00 35 1014.3
20260905191023 102 23 2.6 5.2 0.00 0.00 0.00 35 1014.5
20260905190021 101 150 1.7 4.3 0.00 0.00 0.00 36 1014.9
20260905185019 100 345 2.6 5.2 0.00 0.00 0.00 37 1015.0
20260905184017 99 44 3.5 5.2 0.00 0.00 0.00 38 1015.1
20260905183035 98 20 2.6 6.1 0.00 0.00 0.00 39 1015.0
20260905182033 99 76 2.6 4.3 0.00 0.00 0.00 37 1015.2
20260905181031 99 196 0.9 2.6 0.00 0.00 0.00 36 1015.5
20260905180030 101 13 3.5 7.8 0.00 0.00 0.00 37 1015.5
20260905175048 100 307 1.7 4.3 0.00 0.00 0.00 37 1015.6
20260905174046 98 1 2.6 6.1 0.00 0.00 0.00 39 1015.8
20260905173024 98 309 2.6 5.2 0.00 0.00 0.00 40 1015.9